Austin, MN

2:04 AM CDT on May 01, 2017 (GMT -0500)
Austin Municipal

Weather History for KAUM - May, 2014

Change the Weather History Date:

Thursday, May 15, 2014

  Actual Average Record
Temperature  
Mean Temperature 46 °F -  
Max Temperature 50 °F 64 °F 89 °F (2001)
Min Temperature 41 °F 45 °F 30 °F (2016)
Degree Days  
Heating Degree Days 20    
Moisture  
Dew Point 31 °F    
Average Humidity 59    
Maximum Humidity 81    
Minimum Humidity 40    
Precipitation  
Precipitation 0.00 in - - ()
Sea Level Pressure  
Sea Level Pressure 30.08 in    
Wind  
Wind Speed 11 mph (North)    
Max Wind Speed 17 mph    
Max Gust Speed 24 mph    
Visibility 10 miles    
Events Rain , Thunderstorm    
Averages and records for this station are not official NWS values.
T = Trace of Precipitation, MM = Missing Value Source: NWS Daily Summary

Daily Weather History Graph

Daily Weather History Graph

Search for Another Location

Airport or City:

Trip Planner

Search our weather history database for the weather conditions in past years. The results will help you decide how hot, cold, wet, or windy it might be!

Date:

Astronomy

May. 15, 2014 Rise Set
Actual Time 5:46 AM CDT 8:30 PM CDT
Civil Twilight 5:13 AM CDT 9:03 PM CDT
Nautical Twilight 4:31 AM CDT 9:45 PM CDT
Astronomical Twilight 3:43 AM CDT 10:33 PM CDT
Moon 9:38 PM CDT (5/15) 6:34 AM CDT (5/15)
Length of Visible Light 15h 49m
Length of Day
14h 43m
Full, 99% of the Moon is Illuminated
May 15
Full
May 21
Last Quarter
May 28
New
Jun 5
First Quarter
Jun 12
Full

Hourly Weather History & Observations

Time (CDT) Temp. Windchill Dew Point Humidity Pressure Visibility Wind Dir Wind Speed Gust Speed Precip Events Conditions
12:15 AM 48.2 °F - 30.2 °F 50% 30.12 in 10.0 mi NNW 11.5 mph 17.3 mph N/A   Overcast
12:35 AM 46.4 °F 41.1 °F 30.2 °F 53% 30.11 in 10.0 mi NNW 11.5 mph 17.3 mph N/A   Overcast
12:54 AM 46.4 °F 41.5 °F 30.2 °F 53% 30.10 in 10.0 mi NNW 10.4 mph 16.1 mph N/A   Overcast
1:15 AM 46.4 °F 41.9 °F 30.2 °F 53% 30.10 in 10.0 mi NW 9.2 mph - N/A   Overcast
1:35 AM 46.4 °F 41.1 °F 30.2 °F 53% 30.10 in 10.0 mi NNW 11.5 mph 20.7 mph N/A   Overcast
1:54 AM 44.6 °F 38.8 °F 30.2 °F 57% 30.09 in 10.0 mi NNW 11.5 mph 16.1 mph N/A   Overcast
2:15 AM 44.6 °F 38.4 °F 30.2 °F 57% 30.08 in 10.0 mi NNW 12.7 mph 20.7 mph N/A   Overcast
2:35 AM 44.6 °F 38.8 °F 30.2 °F 57% 30.08 in 10.0 mi NNW 11.5 mph 19.6 mph N/A   Overcast
2:55 AM 44.6 °F 38.4 °F 30.2 °F 57% 30.08 in 10.0 mi NNW 12.7 mph 18.4 mph N/A   Overcast
3:15 AM 44.6 °F 38.4 °F 30.2 °F 57% 30.08 in 10.0 mi NNW 12.7 mph 18.4 mph N/A   Overcast
3:35 AM 44.6 °F 38.1 °F 32.0 °F 61% 30.08 in 10.0 mi NNW 13.8 mph 19.6 mph N/A Rain Light Rain
3:55 AM 42.8 °F 35.8 °F 32.0 °F 66% 30.07 in 10.0 mi NNW 13.8 mph 18.4 mph N/A   Overcast
4:15 AM 42.8 °F 37.0 °F 32.0 °F 66% 30.07 in 10.0 mi North 10.4 mph 16.1 mph N/A   Overcast
4:35 AM 42.8 °F 37.5 °F 32.0 °F 66% 30.06 in 10.0 mi North 9.2 mph - N/A   Overcast
4:55 AM 42.8 °F 37.0 °F 30.2 °F 61% 30.06 in 10.0 mi NNE 10.4 mph 16.1 mph N/A   Overcast
5:15 AM 42.8 °F 36.2 °F 32.0 °F 66% 30.05 in 10.0 mi NNE 12.7 mph 16.1 mph N/A   Overcast
5:35 AM 42.8 °F 37.0 °F 30.2 °F 61% 30.04 in 10.0 mi NNE 10.4 mph 16.1 mph N/A   Mostly Cloudy
5:55 AM 41.0 °F 35.2 °F 30.2 °F 65% 30.05 in 10.0 mi North 9.2 mph - N/A   Scattered Clouds
6:15 AM 41.0 °F 34.3 °F 30.2 °F 65% 30.05 in 10.0 mi NNE 11.5 mph 16.1 mph N/A   Mostly Cloudy
6:35 AM 42.8 °F 37.5 °F 30.2 °F 61% 30.05 in 10.0 mi North 9.2 mph - N/A   Overcast
6:55 AM 42.8 °F 38.0 °F 30.2 °F 61% 30.06 in 10.0 mi North 8.1 mph - N/A   Overcast
7:15 AM 42.8 °F 37.5 °F 30.2 °F 61% 30.06 in 10.0 mi North 9.2 mph 16.1 mph N/A   Overcast
7:35 AM 42.8 °F 36.2 °F 30.2 °F 61% 30.06 in 10.0 mi North 12.7 mph 17.3 mph N/A   Overcast
7:55 AM 42.8 °F 37.0 °F 30.2 °F 61% 30.06 in 10.0 mi North 10.4 mph - N/A   Mostly Cloudy
8:15 AM 42.8 °F 36.6 °F 30.2 °F 61% 30.07 in 10.0 mi NNE 11.5 mph 20.7 mph N/A   Overcast
8:35 AM 42.8 °F 35.4 °F 30.2 °F 61% 30.07 in 10.0 mi North 15.0 mph 20.7 mph N/A Rain Light Rain
8:55 AM 42.8 °F 36.2 °F 30.2 °F 61% 30.07 in 10.0 mi NNE 12.7 mph 19.6 mph N/A   Light Drizzle
9:15 AM 42.8 °F 35.8 °F 30.2 °F 61% 30.08 in 10.0 mi NNE 13.8 mph 20.7 mph N/A Rain Light Rain
9:35 AM 42.8 °F 35.4 °F 30.2 °F 61% 30.08 in 10.0 mi NNE 15.0 mph 20.7 mph N/A   Light Drizzle
9:55 AM 42.8 °F 36.6 °F 32.0 °F 66% 30.08 in 10.0 mi NNE 11.5 mph 17.3 mph N/A   Overcast
10:15 AM 41.0 °F 34.7 °F 33.8 °F 76% 30.09 in 10.0 mi NE 10.4 mph - N/A   Light Drizzle
10:35 AM 42.8 °F 39.3 °F 33.8 °F 70% 30.09 in 10.0 mi NE 5.8 mph - N/A   Light Drizzle
10:55 AM 42.8 °F 38.6 °F 33.8 °F 70% 30.09 in 10.0 mi NNE 6.9 mph - N/A   Light Drizzle
11:15 AM 42.8 °F 38.6 °F 35.6 °F 76% 30.09 in 10.0 mi NNE 6.9 mph - N/A Rain Light Rain
11:35 AM 42.8 °F 38.0 °F 35.6 °F 76% 30.10 in 10.0 mi North 8.1 mph - N/A Rain Light Rain
11:55 AM 42.8 °F 38.6 °F 35.6 °F 76% 30.10 in 10.0 mi NNE 6.9 mph - N/A Rain Light Rain
12:15 PM 42.8 °F 39.3 °F 37.4 °F 81% 30.09 in 10.0 mi NE 5.8 mph - N/A Rain Light Rain
12:35 PM 44.6 °F 39.7 °F 35.6 °F 71% 30.09 in 10.0 mi NNE 9.2 mph - N/A   Light Drizzle
12:55 PM 44.6 °F 39.2 °F 35.6 °F 71% 30.09 in 10.0 mi NE 10.4 mph - N/A Thunderstorm Unknown
1:15 PM 46.4 °F 41.5 °F 35.6 °F 66% 30.08 in 10.0 mi NNE 10.4 mph - N/A   Scattered Clouds
2:15 PM 44.6 °F 39.7 °F 30.2 °F 57% 30.08 in 10.0 mi NNE 9.2 mph - N/A Rain Light Rain
2:35 PM 48.2 °F - 30.2 °F 50% 30.08 in 10.0 mi NNW 17.3 mph 24.2 mph N/A   Scattered Clouds
2:55 PM 46.4 °F 41.1 °F 28.4 °F 50% 30.07 in 10.0 mi North 11.5 mph 23.0 mph N/A Thunderstorm Mostly Cloudy
3:15 PM 48.2 °F - 28.4 °F 46% 30.07 in 10.0 mi North 15.0 mph 23.0 mph N/A   Overcast
3:34 PM 48.2 °F - 28.4 °F 46% 30.07 in 10.0 mi NNW 13.8 mph 19.6 mph N/A   Overcast
3:55 PM 50.0 °F - 30.2 °F 47% 30.06 in 10.0 mi North 13.8 mph 19.6 mph N/A   Mostly Cloudy
4:15 PM 48.2 °F - 28.4 °F 46% 30.06 in 10.0 mi North 13.8 mph 19.6 mph N/A   Mostly Cloudy
4:35 PM 48.2 °F - 28.4 °F 46% 30.06 in 10.0 mi North 13.8 mph 19.6 mph N/A   Overcast
4:55 PM 50.0 °F - 28.4 °F 43% 30.06 in 10.0 mi NNW 11.5 mph 19.6 mph N/A   Overcast
5:15 PM 48.2 °F - 26.6 °F 43% 30.06 in 10.0 mi NNW 12.7 mph 23.0 mph N/A   Overcast
5:35 PM 48.2 °F - 26.6 °F 43% 30.06 in 10.0 mi North 10.4 mph 19.6 mph N/A   Overcast
5:55 PM 48.2 °F - 24.8 °F 40% 30.06 in 10.0 mi NNW 11.5 mph 18.4 mph N/A   Overcast
6:15 PM 48.2 °F - 26.6 °F 43% 30.06 in 10.0 mi NNW 13.8 mph 19.6 mph N/A   Overcast
6:35 PM 46.4 °F 40.4 °F 26.6 °F 46% 30.07 in 10.0 mi NNW 13.8 mph 18.4 mph N/A   Overcast
6:55 PM 46.4 °F 42.4 °F 26.6 °F 46% 30.07 in 10.0 mi North 8.1 mph - N/A   Overcast
7:14 PM 46.4 °F 40.7 °F 28.4 °F 50% 30.07 in 10.0 mi North 12.7 mph 17.3 mph N/A   Overcast
7:35 PM 46.4 °F 42.9 °F 30.2 °F 53% 30.08 in 10.0 mi North 6.9 mph - N/A   Overcast
7:55 PM 44.6 °F 40.2 °F 30.2 °F 57% 30.08 in 10.0 mi North 8.1 mph - N/A   Overcast
8:15 PM 44.6 °F 41.4 °F 30.2 °F 57% 30.09 in 10.0 mi North 5.8 mph - N/A   Overcast
8:35 PM 44.6 °F 41.4 °F 30.2 °F 57% 30.08 in 10.0 mi North 5.8 mph - N/A   Overcast
8:55 PM 44.6 °F 43.1 °F 30.2 °F 57% 30.09 in 10.0 mi North 3.5 mph - N/A   Overcast
9:15 PM 44.6 °F 42.2 °F 30.2 °F 57% 30.09 in 10.0 mi North 4.6 mph - N/A   Overcast
9:35 PM 42.8 °F 40.1 °F 32.0 °F 66% 30.09 in 10.0 mi NNW 4.6 mph - N/A   Overcast
9:55 PM 42.8 °F 40.1 °F 32.0 °F 66% 30.10 in 10.0 mi NNW 4.6 mph - N/A   Overcast
10:15 PM 42.8 °F 39.3 °F 30.2 °F 61% 30.10 in 10.0 mi NNW 5.8 mph - N/A   Overcast
10:35 PM 42.8 °F 39.3 °F 32.0 °F 66% 30.10 in 10.0 mi NNW 5.8 mph - N/A   Overcast
10:55 PM 42.8 °F 41.1 °F 33.8 °F 70% 30.10 in 10.0 mi North 3.5 mph - N/A   Overcast
11:15 PM 42.8 °F 40.1 °F 33.8 °F 70% 30.10 in 10.0 mi NNW 4.6 mph - N/A   Overcast
11:35 PM 42.8 °F 39.3 °F 33.8 °F 70% 30.09 in 10.0 mi NNW 5.8 mph - N/A   Overcast
11:54 PM 42.8 °F 40.1 °F 33.8 °F 70% 30.09 in 10.0 mi NNW 4.6 mph - N/A   Overcast